Total_Precipitation_Accumulation
0.00 0.00 0.00 0.00 0.00 0.00 0.00 0.00 0.00 0.00 0.00 0.00 0.00 0.00 0.00 0.00 0.00 0.00 0.00 0.00 0.00 0.00 0.00 0.00 0.00 0.00 0.00 0.00 0.01 0.00 0.00 0.09 0.09 0.30 1.14 0.19 0.16 0.10 0.14 0.37 0.50 0.29 0.17 0.29 0.29 0.29 0.18 0.27 0.05 0.12 0.07 0.05 0.01 0.00 0.00 0.01 0.01 0.01 0.05 0.01 0.01 0.01 0.04 0.02 0.02 0.02 0.01 0.03 0.03 0.02 0.02 0.03 0.05 0.05 0.04 0.03 0.05 0.06 0.08 0.15 0.14 0.21 0.19 0.13 0.14 0.15 0.10 0.09 0.10 0.08 0.09 0.09 0.09 0.13 0.12 0.10 0.08
0.00 0.00 0.00 0.00 0.00 0.00 0.00 0.00 0.00 0.00 0.00 0.00 0.00 0.00 0.00 0.00 0.00 0.00 0.00 0.00 0.00 0.00 0.00 0.00 0.00 0.00 0.00 0.00 0.00 0.00 0.00 0.02 0.01 0.09 0.24 0.25 0.14 0.14 0.24 0.36 0.48 0.39 0.26 0.32 0.22 0.19 0.37 0.57 0.14 0.04 0.05 0.21 0.07 0.01 0.01 0.01 0.01 0.01 0.02 0.01 0.01 0.01 0.01 0.03 0.03 0.02 0.02 0.01 0.02 0.03 0.05 0.06 0.08 0.10 0.05 0.08 0.06 0.04 0.05 0.08 0.15 0.11 0.16 0.14 0.09 0.12 0.09 0.08 0.11 0.06 0.08 0.09 0.10 0.12 0.13 0.10 0.13
0.00 0.00 0.00 0.00 0.00 0.00 0.00 0.00 0.00 0.00 0.00 0.00 0.00 0.00 0.00 0.01 0.00 0.00 0.01 0.00 0.00 0.00 0.00 0.00 0.00 0.00 0.00 0.00 0.00 0.00 0.47 0.06 0.02 0.09 0.22 0.25 0.25 0.57 0.34 0.40 0.41 0.25 0.26 0.23 0.23 0.20 0.39 0.40 0.12 0.05 0.04 0.12 0.19 0.10 0.01 0.01 0.01 0.01 0.02 0.02 0.02 0.02 0.01 0.01 0.02 0.04 0.03 0.03 0.04 0.05 0.07 0.09 0.05 0.08 0.10 0.09 0.12 0.03 0.03 0.06 0.11 0.13 0.15 0.10 0.10 0.11 0.11 0.04 0.03 0.03 0.05 0.07 0.07 0.11 0.08 0.05 0.07
0.00 0.00 0.00 0.00 0.00 0.00 0.00 0.00 0.00 0.00 0.00 0.00 0.00 0.00 0.00 0.00 0.00 0.00 0.00 0.00 0.00 0.00 0.00 0.00 0.00 0.00 0.00 0.00 0.01 0.00 0.03 0.04 0.07 0.06 0.25 0.22 0.25 0.30 0.36 0.57 0.22 0.22 0.31 0.20 0.22 0.25 0.45 0.53 0.30 0.09 0.05 0.06 0.06 0.15 0.09 0.01 0.02 0.02 0.02 0.02 0.02 0.02 0.01 0.01 0.02 0.05 0.06 0.05 0.06 0.10 0.09 0.05 0.09 0.08 0.08 0.05 0.03 0.01 0.02 0.06 0.06 0.09 0.10 0.15 0.11 0.07 0.05 0.03 0.03 0.04 0.04 0.02 0.03 0.04 0.04 0.06 0.08
0.00 0.00 0.00 0.00 0.00 0.00 0.00 0.00 0.00 0.00 0.00 0.00 0.00 0.00 0.00 0.00 0.00 0.01 0.00 0.00 0.00 0.00 0.00 0.00 0.00 0.00 0.01 0.03 0.01 0.09 0.20 0.06 0.08 0.05 0.06 0.12 0.23 0.54 0.70 0.42 0.37 0.20 0.23 0.31 0.29 0.42 0.34 0.58 0.45 0.66 0.11 0.03 0.09 0.12 0.25 0.05 0.01 0.02 0.01 0.01 0.02 0.02 0.02 0.02 0.02 0.03 0.07 0.08 0.07 0.07 0.07 0.11 0.13 0.09 0.07 0.05 0.02 0.01 0.02 0.03 0.02 0.07 0.08 0.10 0.10 0.04 0.03 0.01 0.02 0.01 0.03 0.03 0.02 0.05 0.04 0.04 0.05
0.00 0.00 0.00 0.00 0.00 0.00 0.00 0.00 0.00 0.00 0.00 0.00 0.00 0.00 0.00 0.00 0.00 0.00 0.01 0.00 0.00 0.00 0.00 0.00 0.00 0.01 0.02 0.02 0.05 0.10 0.07 0.29 0.05 0.11 0.06 0.23 0.32 0.46 0.72 0.38 0.57 0.22 0.31 0.26 0.26 0.22 0.24 0.28 0.34 0.23 0.15 0.12 0.19 0.19 0.06 0.27 0.02 0.02 0.02 0.02 0.02 0.02 0.02 0.01 0.01 0.04 0.06 0.08 0.10 0.12 0.14 0.18 0.15 0.12 0.07 0.06 0.11 0.02 0.01 0.01 0.01 0.03 0.08 0.09 0.07 0.03 0.01 0.01 0.01 0.01 0.01 0.04 0.07 0.06 0.04 0.04 0.04
0.00 0.00 0.00 0.00 0.00 0.00 0.00 0.00 0.00 0.00 0.00 0.00 0.00 0.00 0.00 0.00 0.00 0.00 0.00 0.00 0.00 0.00 0.00 0.00 0.00 0.00 0.03 0.01 0.03 0.06 0.05 0.01 0.03 0.08 0.06 0.15 0.43 0.68 0.65 0.88 0.44 0.40 0.46 0.48 0.31 0.19 0.21 0.14 0.07 0.19 0.19 0.15 0.09 0.04 0.08 0.12 0.09 0.03 0.03 0.04 0.04 0.02 0.02 0.04 0.02 0.03 0.05 0.06 0.08 0.20 0.23 0.26 0.18 0.09 0.06 0.11 0.07 0.04 0.01 0.02 0.01 0.02 0.03 0.03 0.04 0.01 0.01 0.02 0.02 0.01 0.01 0.04 0.03 0.02 0.01 0.02 0.01
0.00 0.00 0.00 0.00 0.00 0.00 0.00 0.00 0.00 0.00 0.00 0.00 0.00 0.00 0.00 0.00 0.00 0.00 0.00 0.00 0.00 0.00 0.00 0.00 0.00 0.00 0.60 0.04 0.24 0.06 0.03 0.08 0.05 0.03 0.09 0.20 0.27 0.61 0.80 0.98 0.85 1.15 0.83 0.53 0.33 0.25 0.34 0.16 0.15 0.11 0.11 0.19 0.14 0.19 0.09 0.09 0.06 0.04 0.09 0.08 0.06 0.03 0.05 0.05 0.03 0.02 0.03 0.07 0.15 0.14 0.28 0.21 0.18 0.16 0.09 0.10 0.10 0.02 0.03 0.02 0.02 0.03 0.02 0.02 0.02 0.01 0.01 0.02 0.01 0.01 0.02 0.03 0.00 0.01 0.00 0.01 0.01
0.00 0.00 0.00 0.00 0.00 0.00 0.00 0.00 0.00 0.00 0.00 0.00 0.00 0.00 0.00 0.00 0.00 0.00 0.00 0.00 0.00 0.00 0.00 0.00 0.00 0.06 0.12 0.06 0.16 0.11 0.09 0.05 0.03 0.04 0.16 0.26 0.37 0.50 0.74 1.22 1.43 1.24 1.19 0.84 1.00 0.33 0.32 0.19 0.06 0.23 0.27 0.46 0.27 0.53 0.17 0.19 0.11 0.06 0.06 0.07 0.04 0.04 0.03 0.03 0.06 0.04 0.04 0.04 0.08 0.11 0.20 0.11 0.10 0.07 0.10 0.11 0.11 0.02 0.05 0.02 0.03 0.03 0.03 0.04 0.03 0.02 0.01 0.02 0.02 0.02 0.01 0.01 0.01 0.02 0.01 0.02 0.00
0.00 0.00 0.00 0.00 0.00 0.00 0.00 0.00 0.00 0.00 0.00 0.00 0.00 0.00 0.00 0.00 0.00 0.00 0.00 0.00 0.00 0.00 0.00 0.00 0.00 0.02 0.05 0.41 0.17 0.18 0.19 0.17 0.10 0.22 0.40 0.78 0.89 1.23 1.41 1.96 1.26 1.03 1.04 1.32 0.81 0.78 0.53 0.73 0.31 0.14 0.30 1.14 0.89 0.38 0.19 0.13 0.12 0.09 0.07 0.05 0.07 0.06 0.04 0.04 0.05 0.06 0.12 0.07 0.08 0.12 0.10 0.10 0.07 0.06 0.04 0.09 0.08 0.06 0.02 0.02 0.03 0.03 0.02 0.04 0.08 0.05 0.03 0.01 0.02 0.03 0.02 0.01 0.02 0.03 0.01 0.00 0.00
0.00 0.00 0.00 0.00 0.00 0.00 0.00 0.00 0.00 0.00 0.00 0.00 0.00 0.00 0.00 0.00 0.00 0.00 0.00 0.00 0.00 0.00 0.00 0.00 0.00 0.03 0.08 0.19 0.31 0.34 0.14 0.15 0.28 0.71 0.71 0.95 0.92 1.73 2.12 1.17 1.27 1.38 1.71 1.30 1.37 0.60 0.93 0.68 0.89 0.48 0.63 1.68 0.97 0.53 0.31 0.41 0.28 0.22 0.37 0.15 0.04 0.06 0.13 0.10 0.12 0.11 0.11 0.12 0.15 0.18 0.15 0.07 0.07 0.07 0.06 0.09 0.11 0.09 0.04 0.04 0.07 0.04 0.03 0.05 0.06 0.06 0.02 0.01 0.01 0.01 0.01 0.01 0.01 0.00 0.00 0.00 0.00
0.00 0.00 0.00 0.00 0.00 0.00 0.00 0.00 0.00 0.00 0.00 0.00 0.00 0.00 0.00 0.00 0.00 0.00 0.00 0.00 0.00 0.00 0.00 0.00 0.11 0.02 0.10 0.10 0.36 0.50 0.30 0.45 0.72 0.86 0.79 0.71 1.00 1.11 1.08 1.12 1.51 2.00 1.82 1.41 1.09 1.25 0.68 0.75 0.70 1.09 0.57 0.68 0.76 0.49 0.31 0.29 0.37 0.28 0.18 0.16 0.30 0.49 0.66 0.51 0.33 0.21 0.12 0.17 0.24 0.14 0.08 0.10 0.15 0.09 0.09 0.06 0.06 0.07 0.08 0.09 0.08 0.07 0.05 0.10 0.05 0.01 0.01 0.01 0.01 0.01 0.00 0.00 0.00 0.00 0.00 0.00 0.00
0.00 0.00 0.00 0.00 0.00 0.00 0.00 0.00 0.00 0.00 0.00 0.00 0.00 0.00 0.00 0.00 0.00 0.00 0.00 0.00 0.00 0.00 0.00 0.00 0.00 0.00 0.51 0.42 0.34 0.33 0.30 0.76 0.79 0.75 0.79 0.89 0.92 0.79 1.32 1.35 2.51 2.34 1.67 1.51 1.45 1.40 1.14 0.76 0.61 0.62 0.79 0.53 0.31 0.24 0.21 0.42 0.48 0.41 0.44 0.62 0.51 0.46 0.28 1.25 1.10 0.77 0.66 1.09 0.67 0.36 0.18 0.10 0.14 0.13 0.13 0.12 0.10 0.11 0.11 0.12 0.06 0.08 0.09 0.06 0.06 0.02 0.01 0.01 0.01 0.01 0.00 0.00 0.00 0.00 0.00 0.00 0.00
0.00 0.00 0.00 0.00 0.00 0.00 0.00 0.00 0.00 0.00 0.00 0.00 0.00 0.00 0.00 0.00 0.00 0.00 0.00 0.00 0.00 0.00 0.00 0.00 0.01 0.02 0.56 0.20 0.74 0.41 0.86 0.70 0.75 0.71 0.49 0.54 0.43 0.82 1.08 1.54 1.68 1.97 2.33 1.64 1.35 1.84 1.19 0.97 1.11 0.83 0.90 0.89 0.81 0.67 0.33 0.32 0.38 0.20 0.39 0.55 0.59 0.45 0.59 0.58 0.64 0.77 1.04 1.06 0.96 0.40 0.31 0.16 0.15 0.13 0.18 0.11 0.21 0.20 0.13 0.07 0.09 0.07 0.06 0.04 0.05 0.04 0.02 0.02 0.01 0.01 0.00 0.00 0.00 0.00 0.00 0.00 0.00
0.00 0.00 0.00 0.00 0.00 0.00 0.00 0.00 0.00 0.00 0.00 0.00 0.00 0.00 0.00 0.00 0.00 0.00 0.00 0.00 0.00 0.00 0.00 0.00 0.00 0.01 1.34 0.14 0.62 0.38 0.40 0.56 0.45 0.27 0.42 0.43 0.48 0.86 1.91 1.76 2.72 2.75 2.63 2.04 1.77 1.63 1.36 1.37 1.84 1.42 1.08 1.07 1.11 1.09 1.17 1.02 0.53 0.44 0.29 0.72 0.56 0.45 0.42 1.12 1.39 0.68 0.50 0.99 1.05 0.69 0.37 0.31 0.30 0.16 0.17 0.19 0.20 0.13 0.27 0.08 0.05 0.04 0.04 0.04 0.06 0.03 0.02 0.02 0.00 0.01 0.00 0.01 0.00 0.00 0.00 0.00 0.00
0.00 0.00 0.00 0.00 0.00 0.00 0.00 0.00 0.00 0.00 0.00 0.00 0.00 0.00 0.00 0.00 0.00 0.00 0.00 0.00 0.00 0.00 0.00 0.09 0.00 0.09 0.13 0.05 0.20 0.21 0.15 0.32 0.44 0.38 0.43 0.55 0.94 1.12 1.40 1.86 2.24 2.90 2.64 1.80 1.89 1.70 1.72 1.28 2.11 1.78 1.54 1.58 1.18 1.44 1.37 1.09 1.25 0.70 0.68 0.90 1.69 0.66 0.60 0.79 1.16 1.11 1.03 0.81 1.03 0.60 0.49 0.74 0.62 0.56 0.52 0.39 0.27 0.11 0.13 0.19 0.02 0.03 0.03 0.06 0.02 0.01 0.01 0.00 0.01 0.01 0.01 0.01 0.00 0.00 0.00 0.00 0.00
0.00 0.00 0.00 0.00 0.00 0.00 0.00 0.00 0.00 0.00 0.00 0.00 0.00 0.00 0.00 0.00 0.00 0.00 0.00 0.00 0.01 0.00 0.01 0.00 0.03 0.01 0.13 0.13 0.15 0.08 0.19 0.23 0.23 0.38 0.43 1.11 1.67 1.64 2.04 1.64 2.28 1.95 2.02 1.83 2.30 2.16 1.82 1.97 2.43 2.52 2.55 2.56 3.40 2.68 2.27 2.32 1.73 2.07 1.52 1.55 1.08 0.86 0.61 1.04 0.90 1.25 0.72 0.91 0.74 0.65 0.51 0.50 0.80 0.61 0.48 0.49 0.31 0.46 0.12 0.07 0.04 0.07 0.05 0.04 0.02 0.02 0.01 0.01 0.01 0.00 0.01 0.01 0.02 0.00 0.00 0.00 0.00
0.00 0.00 0.00 0.00 0.00 0.00 0.00 0.00 0.00 0.00 0.00 0.00 0.00 0.00 0.00 0.00 0.00 0.00 0.00 0.00 0.00 0.00 0.00 0.01 0.02 0.05 0.15 0.10 0.22 0.16 0.42 0.78 0.57 0.99 1.72 1.48 1.66 2.20 2.55 1.93 1.89 2.43 1.94 2.81 3.21 2.87 2.20 2.46 2.11 2.86 2.61 3.32 2.97 3.19 2.51 2.29 3.46 2.23 2.24 1.80 1.56 1.21 0.95 1.43 1.59 1.70 1.55 1.49 0.63 0.70 0.92 1.05 0.72 0.83 0.66 1.10 0.47 0.27 0.34 0.06 0.12 0.08 0.08 0.09 0.03 0.01 0.01 0.01 0.01 0.01 0.00 0.00 0.03 0.02 0.00 0.00 0.00
0.00 0.00 0.00 0.00 0.00 0.00 0.00 0.00 0.00 0.00 0.00 0.00 0.00 0.00 0.00 0.00 0.00 0.00 0.01 0.00 0.00 0.00 0.01 0.01 0.06 0.17 0.22 0.30 0.87 1.00 1.21 1.19 1.49 2.12 2.11 1.89 1.70 1.88 2.09 2.68 2.83 2.40 3.44 2.62 3.00 2.40 3.76 2.59 2.16 2.74 3.17 3.17 3.20 3.28 1.88 2.02 1.77 1.55 1.77 1.28 0.91 1.13 1.68 1.42 2.29 1.44 1.72 1.26 1.55 0.93 1.64 1.32 1.02 1.49 0.96 0.64 0.56 0.54 0.29 0.06 0.09 0.21 0.13 0.11 0.03 0.02 0.01 0.01 0.01 0.00 0.00 0.00 0.01 0.01 0.00 0.02 0.03
0.00 0.00 0.00 0.00 0.00 0.00 0.00 0.00 0.00 0.00 0.00 0.00 0.00 0.00 0.00 0.00 0.00 0.00 0.01 0.01 0.00 0.00 0.04 0.03 0.07 0.32 0.25 0.40 0.89 1.86 2.01 2.20 2.10 2.41 2.80 2.61 2.60 2.42 2.59 2.62 1.99 1.89 1.90 1.78 2.26 1.88 3.12 2.39 2.35 2.97 2.61 3.08 2.66 2.40 2.07 1.71 1.77 2.28 1.08 1.44 1.20 1.17 1.47 2.14 1.89 1.90 1.81 2.33 2.30 1.97 1.92 1.62 1.49 1.61 1.43 0.97 0.91 0.71 0.48 0.16 0.21 0.25 0.20 0.17 0.07 0.06 0.03 0.01 0.01 0.01 0.01 0.00 0.00 0.01 0.02 0.02 0.01
0.00 0.00 0.00 0.00 0.00 0.00 0.00 0.00 0.00 0.00 0.00 0.00 0.00 0.00 0.00 0.00 0.00 0.00 0.00 0.00 0.03 0.01 0.00 0.04 0.11 0.21 0.22 0.50 1.47 1.08 1.77 2.82 2.28 1.91 2.15 2.07 2.85 2.88 3.93 4.06 2.97 2.68 3.01 2.76 2.35 2.25 1.90 2.54 2.64 2.23 2.15 1.85 1.84 1.63 1.87 2.01 2.13 1.31 1.17 1.51 1.23 1.00 1.02 2.27 2.23 1.53 2.09 2.04 1.78 2.20 1.58 1.92 1.73 1.58 1.03 0.81 0.78 0.55 0.76 0.46 0.59 0.41 0.42 0.33 0.15 0.09 0.15 0.14 0.02 0.03 0.06 0.02 0.02 0.02 0.01 0.00 0.02
0.00 0.00 0.00 0.00 0.00 0.00 0.00 0.00 0.00 0.00 0.00 0.00 0.00 0.00 0.00 0.00 0.00 0.00 0.00 0.00 0.01 0.00 0.03 0.01 0.07 0.13 0.51 0.74 0.31 0.48 1.13 1.19 1.53 1.82 2.12 2.03 2.47 2.41 4.08 3.32 3.42 3.81 3.64 2.35 2.01 2.20 1.75 1.49 1.97 1.92 1.99 2.07 1.93 2.12 1.95 2.04 1.49 1.44 1.30 1.11 1.30 1.20 1.55 2.05 1.98 1.70 1.54 1.77 1.66 1.54 2.53 2.11 2.46 1.57 1.80 1.42 1.09 1.13 0.74 0.57 0.52 0.51 0.34 0.32 0.27 0.53 0.21 0.14 0.14 0.14 0.05 0.05 0.02 0.02 0.01 0.02 0.00
0.00 0.00 0.00 0.00 0.00 0.00 0.00 0.00 0.00 0.00 0.00 0.00 0.00 0.00 0.00 0.00 0.00 0.00 0.00 0.00 0.00 0.00 0.00 0.00 0.03 0.05 0.34 1.20 0.51 1.20 2.14 1.98 1.77 2.84 2.48 2.72 3.76 3.82 3.24 3.41 2.72 3.13 3.17 3.44 4.02 2.98 2.68 3.04 1.98 2.51 2.71 2.43 2.75 2.20 1.68 1.63 2.01 2.09 1.39 1.22 1.32 1.87 1.40 1.91 1.26 1.71 1.91 2.54 1.97 2.12 1.84 1.53 1.43 2.07 1.69 1.22 0.87 1.34 0.86 0.93 0.69 0.51 0.46 0.52 0.46 0.57 0.41 0.34 0.24 0.13 0.39 0.24 0.06 0.02 0.02 0.01 0.00
0.00 0.00 0.00 0.00 0.00 0.00 0.00 0.00 0.00 0.00 0.00 0.00 0.00 0.00 0.00 0.00 0.00 0.00 0.00 0.00 0.00 0.00 0.00 0.02 0.06 0.13 0.11 0.58 1.61 1.62 2.62 3.99 3.67 2.72 3.46 3.75 3.37 3.90 3.30 3.79 3.68 3.49 2.97 3.74 4.48 4.03 3.06 2.68 2.87 2.39 2.15 2.05 1.95 1.91 1.21 1.10 1.45 1.58 1.33 1.39 1.82 1.95 2.08 2.02 1.33 1.55 2.87 3.34 2.64 2.69 1.69 1.68 1.73 1.69 1.84 1.39 1.02 1.08 0.77 0.90 0.99 1.11 0.87 0.55 0.59 0.55 0.52 0.32 0.24 0.29 0.28 0.29 0.38 0.13 0.02 0.01 0.02
0.00 0.00 0.00 0.00 0.00 0.00 0.00 0.00 0.00 0.00 0.00 0.00 0.00 0.00 0.00 0.00 0.00 0.00 0.00 0.00 0.00 0.00 0.00 0.01 0.09 0.14 0.29 0.23 0.22 1.19 2.09 2.70 3.55 3.98 4.95 4.70 2.76 2.02 2.97 3.39 4.02 4.48 3.78 4.16 3.29 3.35 2.83 2.28 2.24 1.89 2.12 1.73 1.56 1.60 1.28 0.97 1.40 1.72 1.45 1.79 1.83 1.88 1.39 1.80 1.74 2.20 3.73 2.33 2.55 2.27 1.88 2.09 1.98 1.49 1.58 1.45 1.29 1.43 1.40 1.39 1.54 1.43 1.39 1.03 0.96 0.37 0.52 0.54 0.68 0.63 0.54 0.49 0.42 0.55 0.19 0.03 0.03
0.00 0.00 0.00 0.00 0.00 0.00 0.00 0.00 0.00 0.00 0.00 0.00 0.00 0.00 0.00 0.00 0.00 0.00 0.00 0.00 0.00 0.00 0.01 0.02 0.15 0.23 0.21 0.26 0.27 0.32 1.22 1.92 2.15 3.91 6.16 4.23 4.74 3.99 2.56 2.73 2.19 2.08 2.54 3.14 2.45 2.18 2.18 2.40 1.85 2.00 2.24 1.87 1.69 1.87 1.54 1.42 1.83 2.20 2.19 1.93 1.33 1.36 1.81 2.60 2.22 3.05 3.65 3.38 2.58 1.87 2.20 1.94 2.39 2.26 1.77 1.70 1.06 1.43 1.98 2.53 2.66 2.18 2.02 1.65 1.00 0.65 0.46 0.41 1.20 0.99 0.94 0.45 0.62 0.30 0.40 0.20 0.03
0.00 0.00 0.00 0.00 0.00 0.00 0.00 0.00 0.00 0.00 0.00 0.00 0.00 0.00 0.00 0.00 0.00 0.00 0.00 0.00 0.01 0.00 0.01 0.06 0.17 0.38 0.23 0.19 0.40 0.59 0.45 0.81 1.58 4.15 3.64 3.27 4.31 3.58 3.33 2.18 1.04 1.38 1.09 1.50 1.69 1.98 1.90 2.08 2.55 2.06 2.51 2.23 2.40 2.43 1.84 1.31 1.82 2.39 2.60 2.09 2.18 2.23 2.06 2.31 3.25 3.99 3.32 3.38 3.05 2.35 2.11 2.40 2.07 2.03 1.67 1.59 2.74 2.82 1.68 1.65 1.63 3.02 2.43 2.30 1.35 0.77 0.85 0.74 1.02 0.96 0.81 0.68 0.46 0.26 0.72 0.32 0.07
0.00 0.00 0.00 0.00 0.00 0.00 0.00 0.00 0.00 0.00 0.00 0.00 0.00 0.00 0.00 0.00 0.00 0.00 0.00 0.02 0.01 0.01 0.03 0.06 0.07 0.20 0.26 0.25 0.26 0.27 0.29 0.33 0.38 1.28 1.66 3.05 4.12 4.39 2.87 2.28 2.26 1.83 1.23 2.10 1.30 1.59 2.13 3.19 3.17 3.35 2.79 2.08 2.33 2.75 2.72 2.64 2.30 2.59 2.75 2.79 2.41 2.62 2.20 2.60 3.24 2.88 3.63 3.01 2.86 2.17 1.80 2.03 1.83 1.86 1.73 2.51 1.80 1.77 1.56 1.16 1.16 2.15 2.33 2.44 2.29 1.16 0.74 0.88 1.14 0.84 0.90 0.49 0.40 0.59 0.54 0.37 0.26
0.00 0.00 0.00 0.00 0.00 0.00 0.00 0.00 0.00 0.00 0.00 0.00 0.00 0.00 0.00 0.00 0.00 0.00 0.01 0.02 0.03 0.01 0.03 0.06 0.14 0.19 0.23 0.30 0.32 0.32 0.26 0.32 0.34 0.21 0.81 1.09 1.95 1.86 2.81 3.28 3.74 2.68 1.41 1.45 1.53 2.24 3.38 3.91 5.20 4.18 3.45 3.08 3.26 2.65 2.51 1.96 1.63 2.08 2.04 2.22 2.21 2.13 1.95 2.13 2.30 2.16 2.42 3.39 2.76 2.24 2.99 1.62 1.89 1.85 2.12 1.70 1.38 1.17 1.39 1.65 1.68 1.44 2.41 3.25 3.30 2.36 2.07 1.65 0.83 0.58 1.01 0.73 0.63 0.46 0.38 0.30 0.15
0.00 0.00 0.00 0.00 0.01 0.01 0.00 0.00 0.00 0.00 0.00 0.00 0.00 0.02 0.03 0.00 0.00 0.00 0.02 0.02 0.03 0.05 0.07 0.11 0.14 0.18 0.25 0.30 0.43 0.43 0.53 0.59 0.41 0.48 0.82 1.17 0.88 1.85 1.94 2.19 2.74 2.43 1.49 1.99 2.45 2.08 2.29 2.57 3.51 4.51 4.64 5.70 5.28 2.75 2.23 2.02 2.01 2.39 1.85 2.13 1.98 2.22 1.88 1.71 2.17 2.33 2.56 2.54 2.76 2.73 2.11 2.56 2.49 2.49 2.00 1.59 1.30 1.84 1.78 1.75 1.36 1.76 2.05 3.77 2.72 2.77 3.13 2.43 1.19 0.70 0.78 0.38 0.43 0.53 0.45 0.34 0.31
0.01 0.01 0.00 0.02 0.01 0.10 0.00 0.00 0.02 0.01 0.02 0.00 0.00 0.04 0.03 0.00 0.00 0.01 0.03 0.01 0.01 0.03 0.06 0.12 0.19 0.16 0.22 0.28 0.35 0.38 0.56 0.44 0.27 0.65 0.86 1.48 1.28 1.29 2.18 2.59 2.84 1.68 1.93 3.71 3.00 2.76 3.31 4.00 3.75 3.21 3.62 3.92 3.40 3.21 1.90 1.75 2.25 2.68 2.09 2.28 2.19 1.39 2.28 1.81 1.38 2.18 2.84 2.25 2.32 2.17 2.84 2.14 2.21 2.32 2.50 1.97 1.64 2.44 2.76 2.10 1.39 1.15 1.15 1.21 1.81 2.14 2.93 2.79 1.76 1.51 1.26 0.72 0.42 0.32 0.65 0.71 0.72
0.03 0.01 0.13 0.12 0.01 0.13 0.07 0.02 0.00 0.02 0.04 0.00 0.00 0.05 0.03 0.00 0.00 0.01 0.02 0.02 0.01 0.01 0.06 0.18 0.24 0.13 0.20 0.22 0.40 0.32 0.46 0.41 0.58 0.48 0.54 1.11 1.62 2.17 2.41 2.45 2.31 2.65 2.79 3.38 2.67 2.48 2.79 2.46 1.99 2.11 2.64 2.34 3.62 2.43 2.79 2.22 2.73 2.74 2.58 2.73 2.75 2.20 1.86 1.78 1.64 2.10 1.85 2.04 2.06 1.92 2.48 1.93 1.61 1.37 1.48 1.83 2.11 2.22 2.20 2.00 1.57 1.76 1.71 1.26 1.33 2.06 2.64 2.62 1.93 1.26 1.19 0.83 0.42 0.34 0.38 0.95 1.00
0.12 0.07 0.04 0.08 0.06 0.30 0.06 0.02 0.00 0.00 0.00 0.00 0.00 0.02 0.00 0.00 0.00 0.01 0.05 0.03 0.02 0.07 0.12 0.22 0.16 0.23 0.25 0.21 0.18 0.22 0.34 0.50 0.55 0.97 1.57 2.07 3.05 3.41 3.48 2.94 2.51 3.40 3.24 2.97 2.80 2.79 2.09 2.94 2.84 2.75 3.56 3.50 3.20 3.71 6.06 4.79 4.70 3.64 3.14 2.08 1.95 2.60 1.63 1.58 1.16 1.75 1.50 1.35 1.29 0.92 1.50 1.69 1.38 1.93 1.84 1.55 1.99 2.14 2.35 2.19 1.93 1.92 1.71 1.47 1.36 1.17 1.36 1.96 2.61 1.99 1.22 1.03 0.74 0.71 0.46 1.22 1.08
0.21 0.20 0.11 0.08 0.05 0.13 0.16 0.07 0.01 0.01 0.00 0.04 0.00 0.01 0.03 0.00 0.00 0.01 0.04 0.02 0.03 0.06 0.33 0.37 0.43 0.23 0.67 0.23 0.33 0.26 0.25 0.38 0.90 1.33 1.62 2.13 3.68 4.14 2.42 2.61 3.39 4.77 5.51 3.84 3.30 3.10 2.51 2.28 1.65 3.06 5.05 6.49 7.69 5.31 5.16 4.61 4.52 4.28 3.17 2.29 2.15 1.83 1.11 1.12 1.05 1.33 1.15 1.20 1.21 1.19 0.74 1.78 1.68 1.26 1.08 1.07 1.28 1.86 2.25 2.15 2.12 2.97 2.15 1.73 1.79 1.50 1.37 1.46 1.64 2.03 1.84 1.29 1.06 1.23 1.36 1.62 1.70
0.15 0.13 0.22 0.17 0.12 0.07 0.09 0.12 0.17 0.00 0.02 0.01 0.01 0.01 0.00 0.00 0.00 0.01 0.01 0.02 0.01 0.07 0.11 0.20 0.30 0.60 0.25 0.15 0.55 0.49 0.37 0.41 0.49 0.99 1.92 2.27 2.71 3.00 2.92 2.90 3.33 4.24 3.87 3.09 3.42 3.67 2.76 1.82 2.00 3.50 4.51 4.91 4.98 4.15 3.86 4.80 3.88 3.97 3.26 2.39 2.10 1.83 1.77 1.74 1.92 1.65 1.09 1.62 1.15 0.98 1.03 1.16 1.39 1.24 0.93 1.02 1.15 1.43 1.40 1.64 1.99 2.70 2.26 2.55 2.38 1.85 1.61 1.12 1.50 1.94 2.32 2.20 1.96 1.93 2.53 1.77 2.23
0.05 0.03 0.04 0.03 0.07 0.12 0.18 0.03 0.05 0.07 0.09 0.03 0.04 0.03 0.01 0.00 0.01 0.01 0.04 0.08 0.03 0.05 0.13 0.18 0.25 0.19 0.48 0.48 0.66 0.61 0.42 0.42 0.70 1.67 1.85 2.43 3.25 2.50 3.25 3.59 4.61 2.63 2.41 2.34 2.63 2.38 2.01 2.24 1.35 1.96 3.64 4.59 4.55 4.67 6.40 5.85 5.41 3.96 3.46 2.91 1.94 1.66 1.62 1.28 1.36 1.31 0.91 1.07 1.19 1.34 1.31 1.26 0.81 0.96 0.86 1.23 2.01 1.13 1.37 1.84 1.77 1.41 2.13 3.35 2.60 2.13 1.30 1.48 1.69 1.94 1.75 2.02 2.36 2.17 1.86 1.86 1.99
0.00 0.01 0.04 0.05 0.06 0.07 0.02 0.06 0.00 0.01 0.04 0.01 0.01 0.01 0.01 0.00 0.00 0.01 0.01 0.03 0.07 0.10 0.28 0.21 0.22 0.20 0.29 0.17 0.14 0.47 0.77 0.70 1.18 2.06 1.67 2.22 2.83 3.99 3.28 2.72 2.55 2.21 2.56 2.17 2.41 2.63 2.54 2.50 1.73 2.03 2.18 3.86 4.78 4.24 5.51 6.06 5.66 4.52 2.93 2.57 1.91 2.12 1.67 1.45 1.21 1.18 1.05 0.97 1.47 1.94 1.64 1.25 1.24 1.28 0.80 0.96 0.94 0.84 1.09 1.25 2.42 2.43 1.41 2.20 1.94 2.29 2.09 1.75 1.78 2.03 1.98 1.93 2.35 1.76 1.95 1.82 2.42
0.06 0.07 0.04 0.04 0.09 0.22 0.03 0.02 0.04 0.03 0.03 0.06 0.00 0.01 0.01 0.01 0.00 0.00 0.02 0.04 0.03 0.03 0.09 0.13 0.22 0.17 0.34 0.18 0.14 0.31 0.78 0.63 1.48 2.34 2.82 3.21 3.41 3.57 2.83 1.53 1.83 1.80 1.84 2.17 1.92 1.71 1.87 2.24 2.31 2.35 3.09 2.91 2.79 2.16 2.44 3.40 3.03 2.96 2.20 2.20 2.04 1.90 1.88 1.45 1.10 1.23 1.13 1.33 1.84 1.47 1.41 1.20 1.05 1.24 0.92 1.02 0.88 0.92 1.10 1.01 1.66 1.86 1.99 2.08 1.85 1.79 1.91 2.52 2.47 2.16 1.99 3.04 1.93 2.44 2.61 2.27 2.74
0.04 0.07 0.04 0.01 0.13 0.04 0.00 0.01 0.01 0.06 0.03 0.09 0.03 0.03 0.01 0.02 0.02 0.04 0.01 0.03 0.02 0.01 0.02 0.08 0.11 0.26 0.25 0.19 0.14 0.33 0.81 0.84 1.49 2.32 2.17 2.76 2.72 1.96 1.65 1.80 2.47 2.52 2.71 2.85 4.19 3.60 2.22 1.37 1.92 2.33 3.06 1.99 1.43 2.03 1.67 2.01 1.82 1.99 2.20 2.35 2.41 2.44 2.56 1.84 1.68 1.30 1.48 1.67 1.48 1.47 0.89 1.13 0.80 0.87 0.91 0.64 0.72 1.18 1.07 1.02 1.18 1.80 1.98 2.16 1.72 1.78 1.14 1.46 1.96 2.03 1.92 1.40 2.09 1.84 1.78 2.75 2.78
0.02 0.09 0.10 0.13 0.10 0.10 0.24 0.08 0.07 0.07 0.05 0.07 0.06 0.02 0.30 0.09 0.10 0.07 0.03 0.02 0.01 0.03 0.03 0.12 0.18 0.21 0.39 0.35 0.30 0.21 0.31 1.25 2.75 2.59 2.33 3.18 2.80 2.48 2.06 1.49 2.55 1.26 1.43 1.70 2.39 1.76 2.88 2.71 2.50 1.91 1.37 1.45 2.29 1.59 1.66 1.68 1.64 1.36 1.57 1.63 2.64 1.90 1.84 1.96 1.57 1.55 1.64 1.59 1.50 0.87 1.64 1.62 1.09 0.80 0.84 0.99 0.61 0.84 1.15 1.15 1.56 1.20 1.51 1.61 1.74 1.95 1.58 1.41 1.17 1.63 1.69 1.60 1.82 2.11 1.54 2.61 2.01
0.03 0.05 0.07 0.04 0.06 0.15 0.05 0.16 0.06 0.01 0.01 0.01 0.04 0.06 0.08 0.03 0.06 0.09 0.03 0.01 0.02 0.01 0.05 0.08 0.17 0.32 0.66 0.60 0.61 0.40 0.33 0.50 1.40 2.07 2.48 3.04 2.31 2.68 1.19 1.98 2.52 1.85 1.40 1.64 1.81 2.16 2.70 1.63 1.92 1.62 1.69 1.63 1.75 1.81 2.13 1.99 3.62 2.33 2.32 2.51 2.48 2.76 2.35 2.12 1.55 1.27 1.45 1.24 1.25 0.95 1.12 0.98 1.11 1.22 0.95 0.96 0.54 0.55 0.91 1.15 1.46 1.10 0.85 1.07 1.17 1.54 1.48 1.22 1.32 1.10 0.97 1.36 1.29 1.86 1.48 2.07 2.17
0.07 0.03 0.01 0.02 0.02 0.03 0.02 0.03 0.06 0.15 0.19 0.02 0.10 0.21 0.50 0.16 0.15 0.09 0.03 0.07 0.07 0.01 0.04 0.08 0.14 0.05 0.21 0.24 0.42 0.17 0.29 1.48 1.65 2.12 2.86 1.92 2.92 3.09 1.98 2.76 2.77 1.58 1.71 2.25 1.87 2.98 3.04 2.99 2.16 2.19 3.24 2.68 1.73 0.96 1.16 1.22 2.15 1.97 1.80 1.61 1.68 1.50 1.23 1.23 0.89 0.54 0.51 0.74 1.03 0.62 1.03 1.00 1.18 1.51 1.30 1.00 0.65 1.02 1.30 0.87 0.96 1.03 0.94 0.74 0.83 1.01 0.98 1.41 1.51 1.42 0.80 0.82 0.83 1.17 1.25 1.46 2.14
0.16 0.26 0.03 0.03 0.03 0.02 0.03 0.06 0.08 0.34 0.28 0.50 0.04 0.30 0.47 0.12 0.20 0.16 0.04 0.03 0.03 0.03 0.06 0.14 0.20 0.17 0.10 0.15 0.17 0.46 0.72 1.40 2.40 2.55 2.21 2.98 5.00 3.36 3.26 3.77 1.81 0.95 1.57 0.95 1.38 1.94 3.17 3.54 2.37 2.88 1.92 1.16 1.10 2.14 1.64 1.85 2.22 1.49 1.16 1.49 1.10 0.98 0.86 0.78 0.99 0.66 0.55 0.66 1.01 1.05 0.97 1.29 1.66 1.85 1.55 1.41 1.21 1.30 1.36 0.94 0.58 0.45 0.71 1.42 1.31 0.96 0.93 0.80 1.00 1.06 1.40 1.50 0.93 1.04 1.47 1.52 1.31
0.25 0.07 0.06 0.04 0.04 0.03 0.09 0.09 0.12 0.28 0.02 0.02 0.04 0.09 0.30 0.30 0.23 0.15 0.17 0.09 0.08 0.08 0.10 0.10 0.25 0.20 0.14 0.32 0.31 0.25 0.93 1.74 1.50 1.34 2.24 3.51 3.56 2.62 2.91 1.62 0.78 1.20 0.65 1.50 2.97 2.72 3.82 3.10 3.00 1.53 1.14 0.73 0.86 1.00 1.15 2.52 2.26 1.88 1.76 1.89 2.10 2.20 1.15 1.02 1.03 0.87 0.94 0.98 1.08 1.15 1.17 1.63 1.40 1.83 2.31 1.73 1.73 1.55 1.94 1.22 0.88 0.71 0.61 0.84 0.75 0.90 0.86 0.82 0.91 1.35 1.50 1.56 1.79 1.74 1.62 1.50 1.38
0.13 0.05 0.05 0.09 0.06 0.10 0.04 0.05 0.12 0.21 0.16 0.32 0.18 0.17 0.23 0.28 0.39 0.11 0.24 0.16 0.08 0.13 0.06 0.15 0.09 0.11 0.21 0.45 0.30 0.44 0.63 0.72 1.42 1.48 2.91 2.39 1.44 3.11 2.66 1.97 1.22 1.13 2.90 2.09 1.01 1.78 3.70 3.08 1.42 1.35 1.87 1.92 1.29 1.00 1.09 0.93 1.29 0.99 0.76 0.63 0.70 1.05 1.40 1.62 1.86 1.58 1.26 0.84 0.98 0.92 0.97 1.27 1.86 2.63 2.15 2.03 2.14 1.73 1.70 1.07 1.06 1.01 1.19 0.98 0.64 1.03 1.04 0.86 0.98 0.96 0.98 1.24 1.54 1.68 2.25 1.91 1.70
0.03 0.03 0.05 0.03 0.03 0.03 0.04 0.12 0.12 0.23 0.25 0.36 0.18 0.23 0.27 0.24 0.28 0.25 0.31 0.09 0.35 0.24 0.15 0.11 0.19 0.14 0.30 0.21 0.32 0.29 0.75 1.01 1.21 2.52 2.61 1.16 2.24 2.44 2.11 1.43 1.14 2.57 2.80 2.04 1.68 1.50 1.27 1.46 2.08 2.94 3.38 3.31 1.88 1.69 1.37 1.65 1.50 1.17 1.11 0.73 0.62 0.79 0.72 0.85 1.07 1.42 1.21 1.21 0.86 1.30 1.34 1.64 1.92 2.46 2.86 2.58 1.94 1.89 1.56 1.17 1.13 1.03 1.06 0.76 0.56 0.93 0.79 0.70 0.69 0.63 0.74 0.78 1.44 2.18 1.94 1.97 2.01
0.13 0.07 0.04 0.17 0.09 0.11 0.06 0.19 0.15 0.31 0.49 0.12 0.09 0.15 0.35 0.40 0.36 0.45 0.43 0.33 0.33 0.28 0.21 0.17 0.12 0.16 0.29 0.19 0.32 0.52 0.66 0.63 1.61 3.12 1.85 1.95 3.25 2.57 2.54 2.70 2.89 3.89 3.73 2.77 1.53 0.80 1.21 1.16 1.57 1.80 1.95 1.94 1.40 1.39 1.30 2.07 2.50 1.60 0.79 0.93 0.93 0.72 0.58 0.63 0.92 0.95 1.40 1.06 0.88 1.02 1.04 1.45 2.41 2.30 2.19 1.95 1.99 1.30 0.91 0.96 0.79 0.69 0.76 0.82 1.06 0.91 0.45 0.94 0.71 0.53 0.84 0.99 1.51 1.48 1.51 1.67 1.65
0.06 0.21 0.21 0.21 0.43 0.19 0.21 0.31 0.37 0.58 0.47 0.15 0.27 0.09 0.31 0.33 0.52 0.27 0.21 0.57 0.41 0.25 0.22 0.11 0.30 0.11 0.13 0.17 0.34 0.53 0.53 0.64 1.36 1.16 0.56 1.55 3.16 2.05 2.43 2.63 3.19 2.65 2.42 2.04 1.37 1.02 0.88 0.74 0.57 1.32 2.57 2.02 3.65 3.34 2.59 1.98 1.59 1.46 1.30 1.35 1.32 1.45 0.91 0.99 1.08 1.18 0.81 1.00 0.98 1.22 1.41 1.67 2.52 1.25 1.63 1.84 1.38 1.21 0.90 0.81 0.70 0.72 0.56 0.72 1.03 1.24 0.82 0.54 0.60 1.03 1.42 1.10 0.97 1.21 1.49 1.61 1.57
0.09 0.24 0.49 0.49 0.80 0.55 0.65 0.52 0.60 0.74 0.40 0.25 0.07 0.21 0.18 0.29 0.57 0.32 0.20 0.16 0.18 0.17 0.10 0.12 0.10 0.14 0.16 0.16 0.15 0.34 0.39 0.76 1.47 1.49 1.63 2.03 1.52 1.74 1.47 1.83 1.69 2.48 2.83 2.65 1.79 1.78 1.04 1.12 0.74 1.13 2.80 2.47 1.31 0.90 1.16 1.38 2.27 1.67 1.86 1.55 1.42 1.25 1.19 0.90 0.86 0.88 0.95 0.90 0.90 1.07 1.22 2.50 1.44 1.23 1.01 0.89 1.08 0.99 0.77 0.67 0.60 0.53 0.71 0.94 1.53 0.69 0.89 0.81 1.11 0.90 1.26 0.92 0.87 0.82 0.71 0.92 1.46
0.10 0.23 0.46 0.59 0.83 0.68 0.47 0.48 0.33 0.34 0.23 0.12 0.30 0.15 0.18 0.40 0.34 0.18 0.29 0.37 0.29 0.29 0.13 0.09 0.10 0.15 0.18 0.19 0.45 0.97 1.44 1.74 1.41 1.29 1.47 1.89 1.58 1.86 1.68 2.07 2.26 2.80 1.78 2.53 2.22 3.20 2.47 1.65 1.63 1.92 1.85 1.30 0.90 1.01 0.98 0.96 1.37 1.57 2.62 2.50 1.90 1.62 2.20 2.38 1.89 1.28 0.99 1.06 0.87 0.50 1.12 1.11 0.87 1.18 0.68 0.92 0.92 0.99 0.67 0.72 0.72 0.93 0.97 1.52 1.56 0.98 0.84 1.19 1.38 0.97 1.00 1.09 1.10 0.96 1.17 1.10 1.37
0.16 0.04 0.36 0.52 0.57 0.98 0.51 0.43 0.47 0.33 0.48 0.28 0.18 0.08 0.38 0.39 1.07 0.09 0.19 0.27 0.32 0.25 0.31 0.26 0.24 0.19 0.25 0.55 0.64 0.40 0.42 0.57 0.52 0.94 1.67 1.48 1.20 1.23 1.92 2.20 2.63 2.16 1.95 2.29 2.02 1.87 3.09 3.13 2.30 3.09 3.01 1.69 1.48 1.40 1.53 1.35 1.50 1.76 1.43 1.82 1.02 1.27 1.46 1.23 1.13 1.77 1.86 2.01 1.86 1.06 0.83 0.92 1.00 1.06 0.88 0.82 0.89 1.46 1.15 0.73 0.66 0.76 1.04 1.17 0.99 0.98 1.08 1.28 0.98 1.81 0.94 1.30 1.09 1.13 1.08 1.13 1.13
0.10 0.14 0.12 0.36 0.79 0.30 0.66 0.54 0.32 0.45 0.28 0.20 0.22 0.09 0.47 0.95 0.62 0.23 0.17 0.11 0.16 0.11 0.10 0.13 0.17 0.19 0.21 0.30 0.20 0.26 0.35 0.34 0.41 0.60 0.70 0.73 1.39 1.53 2.15 3.01 2.71 2.11 1.68 2.01 1.74 2.36 2.25 1.92 2.50 2.72 3.07 2.63 2.65 1.85 1.39 1.17 1.11 1.26 1.24 0.78 0.81 1.09 0.77 0.95 0.80 0.90 1.11 1.08 0.81 0.72 0.93 1.45 1.67 1.75 2.42 1.49 1.23 1.31 1.41 1.27 1.06 1.20 0.92 0.87 0.84 1.11 1.73 1.54 1.39 1.45 0.97 0.71 1.09 0.70 0.82 0.97 1.26
0.68 0.13 0.41 0.35 0.16 0.24 0.43 0.26 0.13 0.15 0.32 0.39 0.17 0.35 0.37 0.15 0.38 0.36 0.41 0.25 0.19 0.27 0.29 0.27 0.26 0.29 0.26 0.25 0.31 0.40 0.30 0.30 0.22 0.48 0.97 1.46 1.28 1.86 2.03 1.24 1.92 1.46 1.64 1.44 1.99 1.79 1.77 1.70 2.25 2.40 2.93 3.78 3.75 2.42 2.00 1.02 2.07 2.50 1.57 1.60 0.84 0.69 0.79 0.88 0.92 0.78 0.90 1.01 1.89 1.41 1.38 1.30 1.68 1.24 1.34 0.80 0.87 0.66 1.27 0.84 1.05 1.23 0.69 0.71 1.12 1.29 1.37 1.24 1.06 1.53 0.84 1.18 0.65 0.62 0.94 0.78 0.88
0.50 0.42 0.43 0.10 0.09 0.21 0.38 0.68 0.34 0.26 0.30 0.32 0.20 0.31 0.54 0.32 1.32 0.42 0.50 0.23 0.19 0.27 0.30 0.26 0.34 0.33 0.37 0.59 0.45 0.46 0.54 0.37 0.57 1.27 1.42 1.67 1.82 1.32 1.29 1.43 1.39 1.45 1.77 2.02 1.31 1.03 1.35 2.29 2.96 4.61 5.20 7.17 4.96 3.44 2.34 2.97 3.22 2.74 2.98 1.93 1.36 0.81 0.53 0.57 0.72 0.79 1.28 2.59 1.71 1.24 1.35 1.63 1.68 1.66 1.21 0.81 0.68 0.69 0.89 0.83 1.22 1.35 1.23 1.08 1.30 2.00 2.01 1.62 1.21 0.93 1.01 0.91 0.85 0.93 1.02 0.89 0.79
0.45 0.45 0.34 0.38 0.83 0.73 0.54 0.59 0.61 0.40 0.17 0.24 0.14 0.26 0.30 0.40 0.93 0.40 0.38 0.38 0.29 0.27 0.30 0.35 0.35 0.41 0.38 0.43 0.88 1.10 1.25 1.23 1.25 1.28 1.26 1.48 1.35 1.32 1.61 1.61 1.94 2.92 1.73 1.73 1.28 2.09 1.84 1.64 3.12 3.00 4.46 5.62 4.95 5.11 4.62 4.34 3.30 2.14 2.02 1.61 1.03 1.08 0.78 0.82 1.04 1.34 2.22 1.71 1.23 1.80 1.46 1.38 1.76 1.37 1.03 1.21 0.81 0.54 0.72 0.94 1.45 1.40 1.32 1.45 2.06 1.89 2.06 1.64 1.54 1.26 0.84 0.59 0.52 0.86 0.89 0.77 0.80
0.28 0.32 0.41 0.36 0.52 0.64 0.75 0.57 0.45 0.38 0.71 0.31 0.40 0.22 0.67 0.43 0.94 0.63 0.37 0.25 0.34 0.27 0.28 0.40 0.41 0.55 0.75 0.59 0.69 0.83 1.38 1.59 1.03 1.12 0.96 1.26 1.27 1.56 1.77 1.55 1.50 1.53 1.37 1.19 1.76 1.59 1.31 1.90 2.93 3.62 3.36 4.75 4.52 4.86 4.02 2.53 2.56 2.44 1.97 2.04 2.76 1.55 1.75 1.16 1.60 1.95 1.86 1.65 3.26 2.55 1.87 2.18 0.99 0.88 0.58 1.43 1.47 0.80 1.06 1.23 1.04 1.17 1.03 1.43 1.51 2.42 1.58 2.04 1.76 1.30 1.12 1.05 1.06 0.90 1.00 0.89 1.20
0.88 0.62 0.52 0.55 0.52 0.61 0.36 0.72 0.45 0.64 0.83 0.65 0.57 0.42 0.68 0.99 0.58 0.44 0.55 0.33 0.29 0.26 0.56 0.81 0.75 1.13 1.41 1.54 1.54 1.56 1.57 1.14 1.23 1.44 1.16 2.37 4.07 4.03 2.49 2.30 2.16 1.75 1.33 2.03 2.18 1.87 1.35 2.24 1.98 2.13 2.51 2.55 2.50 3.65 3.21 3.31 2.84 2.53 2.26 2.04 1.62 2.18 1.62 1.34 1.20 1.37 2.84 2.10 2.42 1.97 3.28 1.98 1.35 0.89 1.61 1.24 0.89 1.02 1.36 1.44 1.24 1.05 1.06 1.28 1.29 1.52 1.53 1.16 1.67 1.22 1.20 1.23 1.09 1.01 0.95 0.99 0.63
0.70 0.72 0.77 0.67 1.02 1.20 1.11 0.96 0.19 0.45 0.64 0.66 0.59 0.74 0.97 1.08 0.42 0.47 0.54 0.69 0.43 0.38 0.57 0.72 0.85 0.48 0.51 0.64 0.44 0.44 0.80 1.10 1.64 1.56 1.25 1.18 2.38 2.40 2.51 2.11 1.71 1.73 2.78 2.95 2.13 2.16 1.80 1.51 1.08 1.89 2.44 2.37 2.48 3.29 3.05 2.76 2.29 2.10 1.80 2.27 2.47 2.51 2.38 1.61 1.05 1.54 3.02 2.31 2.13 1.53 2.14 1.92 1.76 1.12 1.53 1.21 1.06 0.84 1.07 1.33 1.78 2.17 1.87 1.78 1.37 1.00 1.09 1.21 1.27 1.07 1.42 1.84 1.38 1.12 1.39 0.50 0.66